Time,TemperatureF,DewpointF,PressureIn,WindDirection,WindDirectionDegrees,WindSpeedMPH,WindSpeedGustMPH,Humidity,HourlyPrecipIn,Conditions,Clouds,dailyrainin,SoftwareType,DateUTC
2013-03-28 11:40:00,60.1,33.0,29.99,SE,131,7.0,11.0,36,0.00,,,0.00,Wunderground v.1.15,2013-03-28 18:40:00,
2013-03-28 11:50:00,60.5,31.2,29.97,SE,131,10.0,10.0,33,0.00,,,0.00,Wunderground v.1.15,2013-03-28 18:50:00,
2013-03-28 11:55:00,60.2,31.7,29.97,SSE,150,8.0,10.0,34,0.00,,,0.00,Wunderground v.1.15,2013-03-28 18:55:00,
2013-03-28 12:05:00,60.7,29.9,29.98,SSE,165,4.0,6.0,31,0.00,,,0.00,Wunderground v.1.15,2013-03-28 19:05:00,
2013-03-28 12:15:00,60.5,28.9,29.97,SSE,157,4.0,6.0,30,0.00,,,0.00,Wunderground v.1.15,2013-03-28 19:15:00,
2013-03-28 12:25:00,60.4,28.8,29.97,ESE,113,6.0,6.0,30,0.00,,,0.00,Wunderground v.1.15,2013-03-28 19:25:00,
2013-03-28 12:35:00,60.1,27.7,29.97,North,353,2.0,9.0,29,0.00,,,0.00,Wunderground v.1.15,2013-03-28 19:35:00,
2013-03-28 12:45:00,58.9,31.3,29.98,NNW,343,6.0,9.0,35,0.00,,,0.00,Wunderground v.1.15,2013-03-28 19:45:00,
2013-03-28 12:55:00,58.4,30.8,29.98,NNW,342,5.0,6.0,35,0.00,,,0.00,Wunderground v.1.15,2013-03-28 19:55:00,
2013-03-28 13:05:00,59.2,28.5,29.98,West,267,2.0,3.0,31,0.00,,,0.00,Wunderground v.1.15,2013-03-28 20:05:00,
2013-03-28 13:15:00,59.5,30.3,29.98,NNW,347,2.0,2.0,33,0.00,,,0.00,Wunderground v.1.15,2013-03-28 20:15:00,
2013-03-28 13:20:00,59.8,29.1,29.98,West,280,2.0,2.0,31,0.00,,,0.00,Wunderground v.1.15,2013-03-28 20:20:00,
2013-03-28 13:39:00,60.9,28.4,29.97,North,353,2.0,2.0,29,0.00,,,0.00,Wunderground v.1.15,2013-03-28 20:39:00,
2013-03-28 13:45:00,60.9,27.5,29.97,West,265,2.0,2.0,28,0.00,,,0.00,Wunderground v.1.15,2013-03-28 20:45:00,
2013-03-28 13:55:00,61.6,27.3,29.97,NNW,333,1.0,2.0,27,0.00,,,0.00,Wunderground v.1.15,2013-03-28 20:55:00,
2013-03-28 20:05:00,49.8,37.3,30.06,North,0,0.0,2.0,62,0.00,,,0.00,Wunderground v.1.15,2013-03-29 03:05:00,
2013-03-28 20:14:00,49.8,39.3,30.06,NE,37,0.0,0.0,67,0.00,,,0.00,Wunderground v.1.15,2013-03-29 03:14:00,
2013-03-28 20:20:00,49.4,39.3,30.06,NE,37,0.0,0.0,68,0.00,,,0.00,Wunderground v.1.15,2013-03-29 03:20:00,
2013-03-28 20:30:00,48.8,39.8,30.06,NE,35,0.0,0.0,71,0.00,,,0.00,Wunderground v.1.15,2013-03-29 03:30:00,
2013-03-28 20:40:00,48.0,39.0,30.06,NE,35,0.0,0.0,71,0.00,,,0.00,Wunderground v.1.15,2013-03-29 03:40:00,
2013-03-28 20:50:00,47.6,39.0,30.08,NE,35,0.0,0.0,72,0.00,,,0.00,Wunderground v.1.15,2013-03-29 03:50:00,
2013-03-28 21:00:00,47.1,38.9,30.08,NE,35,0.0,0.0,73,0.00,,,0.00,Wunderground v.1.15,2013-03-29 04:00:00,
2013-03-28 21:05:00,46.8,38.6,30.08,NE,35,0.0,0.0,73,0.00,,,0.00,Wunderground v.1.15,2013-03-29 04:05:00,
2013-03-28 21:15:00,46.2,38.4,30.07,NE,35,0.0,0.0,74,0.00,,,0.00,Wunderground v.1.15,2013-03-29 04:15:00,
2013-03-28 21:25:00,45.7,37.9,30.07,NE,35,0.0,0.0,74,0.00,,,0.00,Wunderground v.1.15,2013-03-29 04:25:00,
2013-03-28 21:34:00,45.1,37.6,30.09,NE,35,0.0,0.0,75,0.00,,,0.00,Wunderground v.1.15,2013-03-29 04:34:00,
2013-03-28 21:40:00,44.8,37.4,30.09,NE,35,0.0,0.0,75,0.00,,,0.00,Wunderground v.1.15,2013-03-29 04:40:00,
2013-03-28 21:50:00,44.2,36.8,30.09,NE,37,0.0,0.0,75,0.00,,,0.00,Wunderground v.1.15,2013-03-29 04:50:00,